Theta_e
312 312 312 310 309 311 314 314 314 312 316 317 317 318 318 319 320 320 318 317 317 320 321 322 323 321 321 321 321 320 314 315 319 321 323 324 322 323 323 323 324 324 324 324 325
313 312 311 309 309 313 314 316 314 313 316 317 317 318 318 318 320 316 313 315 318 319 320 321 322 323 321 322 321 319 315 318 322 321 320 321 323 323 323 322 324 324 324 324 325
311 311 310 309 311 314 316 316 314 316 317 317 317 318 317 316 321 314 317 318 319 319 320 320 321 321 321 322 322 321 319 320 322 322 321 321 321 321 321 320 323 323 322 323 323
310 310 309 310 313 316 317 316 314 316 317 317 317 317 315 316 318 316 319 320 320 321 321 321 321 321 321 321 322 319 321 321 321 321 321 319 321 321 321 321 322 322 321 321 321
310 310 309 311 314 317 317 317 315 313 313 314 314 314 316 320 318 315 320 320 321 321 321 321 321 321 317 320 321 321 322 322 321 321 320 321 320 320 320 321 322 321 321 320 321
311 311 311 312 315 317 317 318 316 314 313 313 313 315 320 323 318 319 320 320 320 321 321 321 321 322 321 322 320 321 321 321 321 321 321 320 320 321 321 320 321 320 320 320 320
311 312 313 313 314 317 317 317 317 314 314 314 315 316 322 322 320 320 320 320 320 320 320 321 321 321 322 320 323 322 320 318 319 321 321 322 321 320 321 321 321 320 321 321 321
312 312 313 314 315 316 316 316 314 314 313 313 315 318 324 319 320 321 321 321 321 320 320 320 321 322 323 322 322 320 319 318 318 320 321 320 318 319 322 322 321 321 321 321 321
311 311 312 314 315 315 315 314 313 313 314 314 317 322 323 319 321 321 320 320 320 321 321 321 321 322 323 321 320 321 319 320 321 321 319 318 318 320 322 322 322 322 321 322 321
310 312 312 312 313 313 313 314 315 314 313 314 315 320 322 320 321 321 321 321 321 322 322 323 322 320 318 319 319 319 319 319 320 320 320 319 318 320 323 322 322 321 321 321 321
313 309 312 312 313 314 313 321 323 323 317 320 323 325 323 322 321 322 321 321 322 323 322 324 320 319 322 321 321 320 319 320 321 321 321 320 320 319 321 321 320 321 321 321 321
312 310 311 313 313 316 317 322 323 322 323 325 322 323 321 321 321 321 321 322 322 321 322 320 319 321 322 321 321 320 320 320 321 321 320 318 319 318 318 319 320 320 321 320 324
311 310 311 312 316 321 322 322 319 321 323 326 324 321 321 320 321 322 322 321 321 320 320 320 321 322 322 321 321 320 320 319 318 318 318 317 317 317 319 320 320 320 319 318 323
311 310 312 316 321 324 324 322 320 323 325 328 320 320 321 320 321 322 323 322 322 321 321 320 321 322 321 322 319 320 320 319 319 317 316 319 318 318 318 319 319 319 318 319 319
310 312 319 322 322 323 320 320 319 324 334 322 322 321 321 321 323 323 322 322 322 322 323 323 322 321 322 321 320 319 320 319 319 317 317 319 318 320 318 318 320 320 321 319 320
310 314 317 324 324 323 320 320 322 328 333 325 322 321 322 322 322 323 323 322 323 322 324 322 322 322 321 321 321 320 318 319 318 316 318 319 319 317 318 320 320 320 319 321 321
317 315 317 321 321 321 321 320 325 331 330 326 324 323 322 323 324 325 324 323 323 324 322 321 321 321 321 321 320 318 315 317 319 318 320 319 318 316 319 319 318 317 318 320 320
316 318 321 321 321 321 323 323 328 329 325 324 324 323 323 323 325 324 323 323 322 322 321 322 322 321 320 319 319 318 317 316 321 319 320 319 318 316 318 318 318 318 319 320 320
316 321 325 323 321 319 326 329 329 327 324 324 323 322 324 324 324 323 324 325 323 321 321 321 321 319 320 319 317 318 317 316 317 320 319 318 318 318 319 319 318 318 318 319 319
320 327 329 321 320 324 329 331 329 323 322 324 324 325 325 324 324 323 324 323 323 321 319 320 318 318 319 319 319 318 317 316 319 321 320 321 321 320 318 317 319 317 318 317 317
321 330 321 322 320 324 331 332 324 322 321 322 322 323 323 324 323 323 324 323 323 321 319 319 318 320 318 319 318 316 315 316 318 321 318 321 318 317 317 314 314 316 318 317 316
321 328 321 319 323 328 326 323 321 321 321 322 321 323 323 323 322 321 322 323 319 318 319 319 320 321 319 317 317 317 318 318 321 320 320 321 319 315 315 314 315 315 317 316 315
319 323 321 321 325 324 324 323 320 321 320 320 321 321 320 320 320 321 321 319 318 318 319 317 316 314 317 317 317 318 317 315 315 316 318 319 317 317 316 315 315 315 315 314 313
322 325 322 321 321 323 322 325 322 318 318 319 319 319 320 321 319 321 320 320 318 318 318 315 315 316 316 318 319 317 317 317 316 317 317 318 319 315 315 313 314 314 312 312 312
322 323 319 321 321 320 321 321 322 321 318 317 318 320 320 320 319 318 317 318 318 317 317 315 317 319 320 319 318 317 318 317 316 317 317 316 316 315 313 312 313 313 312 311 311
317 318 317 318 321 321 319 322 320 318 317 318 319 317 316 316 318 319 317 317 317 318 317 316 317 318 319 319 317 316 317 317 318 317 317 316 315 313 313 312 313 311 310 310 310
313 315 318 319 321 321 319 317 317 315 317 316 315 315 316 317 316 315 315 314 315 316 315 317 317 318 318 317 316 314 318 317 316 316 316 315 314 312 312 312 312 311 310 310 309
Wind_Speed
6 6 4 3 4 8 9 7 6 7 11 11 10 9 5 3 4 6 5 2 4 4 3 3 5 2 9 15 11 7 3 4 7 7 4 8 3 5 5 4 7 12 16 8 7
7 6 4 3 7 10 9 7 6 9 11 8 7 5 1 7 7 6 5 6 5 8 8 9 12 10 8 8 9 5 3 6 3 6 5 12 5 8 4 6 5 14 14 12 6
6 5 4 6 10 11 9 7 7 9 8 6 5 2 4 11 8 6 13 10 7 7 8 11 11 11 18 20 4 2 3 5 6 11 13 10 12 9 9 4 7 17 15 13 5
6 5 5 9 11 10 8 8 7 6 6 4 5 5 6 10 3 6 10 10 10 10 12 10 11 20 5 2 2 4 5 5 5 11 7 8 12 8 8 2 11 10 7 5 4
5 4 6 10 11 8 7 6 6 4 4 4 6 6 9 9 4 4 8 12 13 14 12 17 10 12 6 7 4 4 1 5 0 4 4 7 14 7 15 9 6 7 3 1 3
4 4 6 9 9 6 4 3 3 2 1 3 5 5 8 9 1 3 6 7 8 12 11 13 13 15 10 5 3 4 7 6 6 8 6 4 6 11 16 15 9 11 7 3 7
2 3 6 7 7 4 3 1 0 1 1 1 5 9 8 6 2 4 5 4 6 8 12 11 9 12 11 7 4 5 4 8 9 12 5 3 2 8 20 17 18 12 8 6 10
1 3 4 5 5 4 3 2 2 2 3 5 7 9 7 5 5 4 4 10 5 7 7 9 5 11 10 10 7 5 4 3 12 13 9 11 8 13 20 14 15 13 15 14 11
2 4 4 4 3 3 3 3 3 3 4 7 6 8 10 3 4 1 3 9 8 11 9 13 10 11 10 4 4 3 4 5 5 11 6 6 6 18 17 9 10 19 24 22 19
1 5 6 4 3 2 3 4 6 6 3 8 11 10 10 7 4 3 1 9 11 13 16 15 9 4 4 3 2 5 6 8 7 9 3 8 8 6 5 10 14 18 19 23 26
1 4 6 5 3 2 3 4 7 2 7 10 10 5 9 3 5 4 2 9 12 12 5 9 1 6 2 6 5 6 7 8 8 11 5 6 7 9 16 21 23 23 24 25 9
3 2 5 4 2 1 1 3 12 9 11 16 15 14 3 2 7 7 3 9 11 7 15 7 6 7 6 8 7 6 8 9 7 7 8 9 14 12 13 18 27 31 32 12 29
6 3 5 5 4 3 2 6 10 10 6 14 20 12 7 7 11 11 6 9 12 9 10 6 8 15 5 6 7 6 5 8 8 9 8 9 10 9 21 28 30 11 17 14 22
7 5 7 6 1 8 12 8 10 7 2 5 8 10 10 6 9 3 5 5 6 6 8 6 14 15 7 3 7 5 10 11 11 8 4 3 11 10 11 13 12 11 14 12 13
7 6 7 3 6 9 9 9 13 1 2 8 7 6 4 8 8 5 1 1 5 6 3 7 12 11 6 2 8 6 3 6 9 8 7 7 3 12 9 9 20 28 26 19 31
6 5 4 5 8 12 11 9 5 2 5 7 8 8 7 12 13 12 2 8 13 7 5 10 24 5 5 7 5 6 8 7 5 4 3 7 4 6 7 11 16 24 29 36 38
4 3 1 4 11 13 10 6 2 3 4 4 2 6 7 5 9 7 4 4 3 4 7 12 11 10 17 6 6 8 8 5 5 4 6 8 7 6 8 13 16 18 22 26 25
4 2 3 2 7 12 3 3 3 10 15 5 7 7 5 6 3 5 2 5 9 8 3 4 7 16 18 9 4 4 1 4 6 3 8 4 5 5 7 21 20 21 26 24 26
4 3 3 1 4 7 5 1 3 5 9 8 8 6 8 1 4 2 4 3 5 6 4 4 4 22 14 12 4 5 3 8 5 4 4 4 8 5 15 12 12 13 18 14 20
6 5 8 1 10 3 1 5 3 10 9 8 5 5 8 7 7 7 7 6 5 11 9 4 5 6 12 17 8 5 6 6 4 4 10 2 6 8 11 18 10 14 15 17 18
8 4 1 4 4 4 2 3 8 12 10 6 7 6 8 8 9 7 6 8 9 8 11 4 3 6 8 4 11 12 8 5 0 3 1 4 5 15 15 8 7 7 10 16 13
7 2 1 7 2 3 0 2 4 11 10 6 1 6 6 8 7 7 7 6 6 5 3 1 2 3 8 19 12 8 6 5 1 9 7 8 10 13 13 15 18 20 14 16 22
12 4 1 6 2 4 4 4 5 7 7 6 5 7 7 4 3 5 6 11 9 4 5 2 2 4 8 7 11 10 14 13 12 2 6 5 6 15 18 7 16 17 14 15 19
6 3 4 1 9 6 5 5 5 5 2 2 5 3 4 5 6 5 7 7 6 3 12 7 3 5 5 11 13 13 15 17 11 1 4 4 5 7 10 11 20 23 27 24 23
6 5 5 3 7 8 4 6 6 3 6 4 4 2 5 1 6 4 9 7 16 7 6 5 5 5 9 14 17 19 19 11 9 5 1 8 13 8 10 9 18 23 24 27 28
6 7 10 9 7 5 3 0 3 7 6 5 5 8 7 4 4 4 7 5 4 3 5 4 3 6 8 12 16 18 12 12 12 10 2 9 13 9 17 22 18 24 30 32 32
11 3 3 9 7 3 1 4 5 4 3 3 6 3 5 7 14 15 19 20 14 5 3 3 2 3 5 10 15 8 8 9 7 9 9 7 5 12 13 18 21 30 31 26 30
Wind_Direction
13 6 12 36 105 128 123 109 93 111 127 134 138 142 127 86 10 338 333 300 121 55 10 334 313 314 272 268 244 251 40 294 305 55 156 176 133 64 9 358 74 90 111 113 42
4 3 18 68 125 130 120 99 90 120 140 150 157 146 108 353 354 27 39 90 75 28 1 330 308 272 241 267 216 158 127 261 47 41 34 21 17 145 129 356 122 122 125 133 116
13 24 55 109 128 127 112 93 94 124 142 162 178 206 322 348 25 40 77 65 46 360 359 334 320 290 259 247 236 252 162 359 65 54 21 1 353 328 90 17 107 141 127 124 111
28 53 90 124 133 126 111 96 96 130 146 186 235 267 320 335 39 100 73 41 19 343 326 303 293 284 285 139 75 357 83 47 44 70 22 328 332 345 20 8 120 119 121 115 61
44 72 116 136 141 131 118 103 95 108 158 223 262 292 331 334 220 132 45 16 5 353 348 6 7 2 11 358 56 332 2 125 311 16 306 340 329 328 308 310 199 155 142 152 222
54 91 128 146 151 145 137 114 83 79 144 259 286 318 340 297 185 48 39 15 11 13 19 3 351 340 317 346 47 338 330 316 161 231 174 198 284 316 298 253 242 190 196 244 283
62 112 139 153 165 171 166 151 342 314 143 285 310 327 322 310 150 330 18 321 22 356 356 348 318 333 333 320 301 257 245 273 248 204 174 126 257 274 277 258 222 191 180 225 268
143 154 157 168 180 191 208 243 283 265 220 277 291 316 292 211 191 269 300 300 321 333 311 325 349 299 278 281 313 265 284 243 226 204 191 145 240 264 279 333 215 188 218 231 242
207 187 185 188 196 219 243 261 276 272 240 266 280 325 283 235 164 287 331 323 348 321 294 287 291 263 278 241 332 280 314 349 11 198 157 154 221 234 251 271 239 237 234 226 229
185 200 194 193 204 222 251 277 290 271 249 250 257 300 229 244 152 245 252 326 306 302 297 258 251 240 305 94 220 346 347 335 321 315 258 246 259 260 294 306 282 285 286 233 226
55 193 193 192 205 263 282 339 339 306 232 224 290 263 155 119 256 267 231 315 303 299 280 261 15 281 357 79 26 346 331 315 295 283 354 335 332 323 327 314 293 283 272 261 235
35 144 181 178 166 209 220 307 338 313 309 265 257 267 67 81 258 217 358 332 351 311 303 334 247 278 8 19 360 325 299 288 285 341 13 337 312 303 294 283 274 266 264 149 148
40 102 142 144 142 113 14 354 337 325 283 295 223 235 216 230 268 89 42 354 323 320 332 333 293 327 43 357 322 312 338 351 333 335 353 338 312 322 302 298 295 221 149 141 149
48 106 129 124 62 326 283 355 330 340 327 221 190 223 158 216 267 121 50 358 318 305 338 317 332 321 338 301 44 2 351 350 338 351 293 26 296 302 283 290 300 216 171 194 218
57 110 114 63 21 19 355 329 322 349 307 141 161 146 230 203 150 121 323 157 284 308 332 269 298 296 321 50 31 289 318 306 294 293 315 289 249 292 301 356 18 21 20 29 35
48 126 115 9 345 347 325 324 319 22 250 171 148 196 222 206 238 147 177 235 266 228 334 308 317 304 55 22 358 330 354 324 339 306 323 280 20 304 37 54 33 25 29 33 28
34 90 98 51 2 332 314 308 1 227 151 127 190 172 212 255 191 184 127 304 260 58 12 318 22 59 31 11 346 14 13 336 346 349 252 333 2 251 64 49 44 21 16 24 19
291 318 108 84 359 314 347 8 259 360 21 46 9 335 299 260 98 12 338 284 51 64 49 10 324 29 352 335 295 351 29 164 267 274 282 340 263 266 96 34 19 29 19 17 9
336 234 286 65 322 335 341 299 318 22 15 358 327 286 291 299 76 122 280 60 70 74 98 14 287 338 332 323 61 313 310 244 272 297 303 226 272 349 77 22 37 26 4 20 8
349 276 288 176 322 62 33 249 67 52 9 359 343 342 348 18 5 27 14 42 91 71 94 6 320 277 307 333 315 263 296 347 309 308 278 326 325 273 9 9 19 13 37 21 4
331 319 74 335 289 277 236 308 74 81 46 10 13 338 343 0 10 3 340 39 34 38 27 5 156 294 338 292 328 325 321 328 253 10 270 325 294 312 9 34 10 11 28 5 357
344 305 311 7 255 218 56 51 20 23 26 11 331 16 36 14 360 346 339 108 103 93 34 92 261 300 288 288 289 348 350 358 127 287 251 265 273 6 342 19 355 7 31 15 2
336 276 65 16 38 341 356 108 76 42 39 12 337 43 27 337 334 314 348 144 133 117 143 116 339 340 326 336 345 356 330 317 312 0 326 334 287 319 311 15 4 6 22 1 348
341 336 31 16 75 17 9 339 123 115 102 19 329 360 344 7 348 332 342 358 31 12 144 117 169 176 227 270 297 314 309 308 298 164 309 285 300 298 12 1 359 4 346 340 335
350 30 15 324 23 339 348 306 316 104 37 304 310 22 49 2 330 289 341 346 0 119 145 130 202 245 289 315 311 307 314 352 353 351 112 326 322 356 357 347 341 332 336 327 322
22 3 343 300 283 294 245 355 13 47 15 337 18 17 11 339 345 336 1 20 277 315 19 350 293 308 286 297 299 305 329 5 359 7 297 308 314 7 327 334 332 332 327 322 319
359 319 324 289 291 264 66 68 64 93 286 70 24 357 316 8 333 306 290 275 252 262 268 246 253 322 265 296 313 324 15 358 340 325 326 319 305 321 325 324 321 324 314 320 326